User: anonymous   Login
Location: Emblem
(62.4273°N, 6.4710°E)
Time: 20:23:39
(UTC+02:00)
Language:

Transit 2A Rocket - Orbit

View from above orbital plane
View from above orbital plane
View from above satellite
View from above satellite

Ground track
Ground track

The orbit data is extracted from the following two-line orbital elements,

1 00047U 60007C   24149.72167133  .00000341  00000-0  97736-4 0  9998
2 00047  66.6656 258.6329 0227947 326.5821  32.1068 14.43564957342558
Epoch (UTC): 28 May 2024 17:19:12
Eccentricity: 0.0227947
inclination: 66.6656°
perigee height: 584 km
apogee height: 909 km
right ascension of ascending node: 258.6329°
argument of perigee: 326.5821°
revolutions per day: 14.43564957
mean anomaly at epoch: 32.1068°
orbit number at epoch: 34255

The dashed part of the orbit path shows where the satellite is in the earth's shadow,  

DLR